Regional Weather Roundup
Issued by NWS Cleveland, OH

Home | Current Version | Previous Version | Graphics & Text | Print | Product List | Glossary On
Versions: 1 2 3 4 5 6 7 8 9 10 11 12 13 14 15 16 17 18 19 20 21 22 23 24 25 26 27 28 29 30 31 32 33 34 35 36 37 38 39 40 41 42 43 44 45 46 47 48 49 50
000
ASUS41 KCLE 160800
RWRCLE
OHIO REGIONAL WEATHER ROUNDUP
NATIONAL WEATHER SERVICE WILMINGTON, OH
300 AM EST SAT DEC 16 2017

NOTE: "FAIR" INDICATES FEW OR NO CLOUDS BELOW 12,000 FEET WITH NO
SIGNIFICANT WEATHER AND/OR OBSTRUCTIONS TO VISIBILITY.

OHZ001>008-015>018-024>027-034-035-043-044-160900-
   NORTHWEST OHIO

CITY           SKY/WX    TMP DP  RH WIND       PRES   REMARKS
DEFIANCE       CLOUDY    32  22  66 SW12      29.95R WCI  23
FINDLAY        CLOUDY    33  23  66 SW14      29.97R WCI  23
TOLEDO EXPRESS CLOUDY    31  23  72 SW15      29.94R WCI  20
TOLEDO EXEC    CLOUDY    31  23  72 SW13      29.95R WCI  21
LIMA           CLOUDY    32  25  75 SW15      29.98R WCI  22
$$

OHZ009>014-019>023-028>033-038-089-160900-
   NORTHEAST OHIO

CITY           SKY/WX    TMP DP  RH WIND       PRES   REMARKS
CLE-HOPKINS    FLURRIES  31  23  72 SW12G25   29.99R WCI  22
CLE-LAKEFRONT  FLURRIES  31  22  69 SW20      29.97R WCI  19
CUY CO. ARPT   NOT AVBL
LORAIN-ELYRIA  FLURRIES  30  19  63 W14       29.97R WCI  19
ASHTABULA      LGT SNOW  25  20  81 SW10      29.95R WCI  15
AKRON-CANTON   FLURRIES  29  19  66 SW16G22   29.98R WCI  17
WOOSTER        NOT AVBL
MANSFIELD      CLOUDY    29  22  75 SW15G23   29.97R WCI  18
YOUNGSTOWN     CLOUDY    27  18  69 SW15      29.95R WCI  15
$$

OHZ042-051>053-060>062-070>072-077>081-160900-
  SOUTHWEST OHIO

CITY           SKY/WX    TMP DP  RH WIND       PRES   REMARKS
CINC-COVINGTON FAIR      31  24  75 S9        30.08R WCI  23
CINC-LUNKEN    MOCLDY    33  24  69 SW9       30.12R WCI  25
HAMILTON       CLOUDY    34  25  69 SW7       30.09R WCI  28
DAYTON         NOT AVBL
WRIGHT-PAT AFB CLOUDY    33  24  70 SW13      30.04R WCI  24
DAYTON GENERAL CLOUDY    32  23  69 SW9       30.05R WCI  24
WILMINGTON     CLOUDY    31  24  75 SW13      30.06R WCI  21
$$

OHZ036-037-039>041-045>050-054>059-063>069-073>076-082>088-160900-
  CENTRAL AND SOUTHEAST OHIO

CITY           SKY/WX    TMP DP  RH WIND       PRES   REMARKS
COLUMBUS       CLOUDY    31  23  72 SW10      30.06R WCI  22
OSU AIRPORT    CLOUDY    31  24  75 SW12      30.04R WCI  22
BOLTON FIELD   CLOUDY    31  24  74 SW14      30.06R WCI  21
RICKENBACK AFB NOT AVBL
NEWARK         CLOUDY    31  22  69 S7        30.05R WCI  24
MARION         NOT AVBL
LANCASTER      CLOUDY    31  23  72 S8        30.07R WCI  23
ZANESVILLE     CLOUDY    31  20  63 SW9       30.06R WCI  23
NEW PHILLY     CLOUDY    30  20  66 SW8G20    30.04R WCI  22
$$




USA.gov is the U.S. government's official web portal to all federal, state and local government web resources and services.